GAOFEN-13 02

Last updated on Mon Oct 14 2024 00:02:42 GMT+0000 (Coordinated Universal Time)

1 55912U 23036A 24287.54534984 -.00000224 00000+0 00000+0 0 9998 2 55912 1.7773 309.0311 0001918 5.9530 52.1351 1.00269419 5966
UTC large
Height (km)
Speed (km/s)
/
Latitude / Longitude
Inclination (degrees)
Orbital Period (minutes)
Azimuth
Elevation
Range (km)
Doppler Factor

Next 0 passes for location: London (51.5072 / 0.1276)

Sorry there are no passes over London.